Theta_e
323 323 326 331 330 330 331 331 333 334 338 341 336 340 344 343 344 343 346 346 346 344 343 342 342 341 342 340 337 339 339 339 340 342 341 341 342 342 341 342 343 343 343 344 345 344 345 346 345 345 345 344 342 342 344 344 344 345 343 343 341 340 340 342 343 341 336 335 338 338 338 341 340 340 341 340 340 341 341 341 342 342 342 343 343
326 325 326 326 329 329 331 330 332 333 336 339 341 342 343 343 343 343 345 346 346 345 344 344 343 342 340 338 338 338 338 337 337 338 339 339 340 340 341 341 342 341 342 341 342 342 342 340 341 341 341 343 344 344 344 343 343 343 343 340 342 339 339 341 341 337 334 331 327 329 332 336 340 341 339 339 339 338 340 340 341 340 340 342 342
322 324 325 326 327 329 330 331 331 334 335 337 339 342 343 343 344 344 344 345 346 346 344 341 342 342 340 338 338 336 338 338 337 337 337 337 337 338 338 339 339 338 339 340 340 340 340 339 339 340 341 342 342 342 343 342 341 341 341 338 336 338 338 340 340 339 332 333 332 329 325 324 331 334 340 339 340 341 339 338 338 337 337 338 339
320 322 324 325 326 327 329 329 330 332 334 336 337 339 340 340 341 342 344 344 343 341 341 342 342 341 341 339 338 337 334 335 335 336 335 335 333 335 335 336 336 335 335 336 337 338 338 338 339 340 341 342 341 340 341 340 341 340 341 340 338 333 335 336 340 340 336 332 324 325 325 325 321 324 329 332 335 336 337 336 337 336 337 337 338
321 321 323 324 324 326 327 328 330 330 332 333 334 335 335 336 338 339 339 340 339 340 341 341 339 338 337 337 336 334 334 333 333 331 332 332 332 332 331 332 332 331 333 333 333 333 333 334 335 336 336 337 338 337 337 337 338 338 338 338 337 334 330 334 337 339 338 338 331 326 325 322 321 324 326 327 333 332 333 334 335 335 335 336 335
324 322 323 324 324 325 326 327 327 328 328 330 333 334 335 335 337 338 337 337 338 339 340 340 338 336 334 333 331 330 329 330 328 328 328 329 327 329 328 326 328 328 327 327 327 328 328 328 330 329 328 329 330 331 333 334 335 335 335 335 334 336 335 330 331 337 339 337 336 332 329 324 322 326 325 319 330 332 332 332 333 333 335 335 336
325 325 325 324 325 324 325 325 327 327 326 329 330 331 332 332 334 335 335 335 337 338 338 338 337 336 334 333 332 330 328 327 328 328 327 326 326 325 325 325 324 324 324 323 322 323 324 325 326 326 326 326 326 326 326 327 327 329 331 334 333 333 334 329 330 330 333 336 337 337 335 333 332 326 321 323 321 327 330 330 332 332 333 334 334
322 324 324 324 325 325 323 323 324 325 326 328 328 330 330 331 332 332 332 333 334 335 335 336 334 333 332 331 330 328 328 325 325 325 325 325 323 323 324 324 324 323 322 321 321 321 322 322 322 322 322 323 323 323 323 324 325 326 327 329 330 330 329 329 330 330 328 328 333 333 334 333 334 334 333 327 324 320 323 329 331 333 334 334 333
323 322 321 321 321 322 323 322 324 324 325 325 327 328 329 329 329 329 330 331 330 331 332 333 333 332 331 329 326 326 326 325 325 325 324 324 323 323 323 323 323 323 323 323 324 322 321 321 321 321 321 320 320 321 321 322 323 324 324 325 325 325 324 326 326 326 328 328 329 330 330 329 330 332 332 331 327 324 321 322 324 330 332 332 334
323 323 322 321 321 320 322 322 322 322 323 324 324 325 325 325 324 324 325 326 327 329 330 330 330 329 329 328 326 324 324 324 324 323 323 323 321 321 321 320 320 320 320 320 321 321 320 319 318 319 319 319 318 320 320 320 321 321 323 324 326 325 324 323 322 323 323 324 325 326 327 328 328 327 327 327 326 327 322 321 324 323 322 327 333
321 320 321 322 323 323 322 321 321 322 323 323 323 324 324 324 325 325 326 326 327 327 327 326 327 326 325 325 324 322 323 322 321 321 320 321 320 320 319 318 318 317 318 317 318 318 318 318 317 317 318 318 317 317 318 317 318 320 322 323 324 322 322 322 322 323 320 320 321 320 320 322 323 324 324 325 324 322 321 321 324 324 323 324 329
320 320 320 320 321 322 322 320 320 321 322 322 323 325 325 324 324 323 324 324 324 324 325 324 323 323 323 322 321 321 321 320 319 318 318 318 318 317 317 317 316 315 315 314 315 316 316 315 316 316 315 316 315 316 317 316 317 319 318 318 319 319 319 318 320 317 317 318 319 318 319 320 321 322 323 324 324 323 322 321 321 323 324 325 327
320 321 320 320 320 321 321 320 320 320 321 322 322 324 324 323 323 322 321 323 322 323 322 322 321 321 320 320 319 319 318 318 317 316 317 316 316 316 315 313 313 313 313 313 313 314 314 314 314 313 314 315 315 315 315 315 316 316 315 315 315 314 313 314 314 313 314 313 314 317 318 319 319 321 321 320 322 322 321 320 322 323 321 323 326
319 321 320 320 321 321 321 320 320 320 321 322 322 323 323 321 321 321 321 322 321 321 320 319 319 319 319 319 318 317 316 316 315 314 315 315 314 314 313 313 311 312 312 312 313 313 312 313 313 313 313 314 313 313 314 314 315 314 313 312 312 312 312 312 312 312 312 312 314 313 315 316 318 319 317 317 317 316 315 315 315 317 319 318 323
320 320 319 319 319 320 320 320 321 320 320 320 321 322 322 320 319 319 319 319 320 318 318 318 317 317 317 317 316 316 315 314 313 314 314 313 313 313 313 312 311 312 312 312 312 312 312 312 312 312 312 312 313 313 313 314 313 313 312 312 311 311 312 311 310 311 310 310 311 311 312 314 314 314 314 316 317 317 316 316 314 310 312 315 316
320 320 319 320 320 319 319 320 320 320 320 321 321 321 321 320 319 319 318 318 318 317 317 317 316 316 316 315 314 314 314 314 313 312 312 313 313 311 311 311 312 311 312 311 311 311 311 310 311 311 311 311 312 311 312 312 312 311 311 311 310 311 311 311 310 311 310 310 310 310 311 311 313 312 313 313 314 315 316 317 316 314 311 307 312
319 319 319 320 320 319 319 319 319 320 320 319 320 321 320 320 319 318 317 318 317 317 316 315 315 314 313 313 313 313 313 312 311 312 312 312 312 311 310 310 312 312 311 311 311 310 310 310 310 309 310 310 310 310 310 311 311 311 310 310 309 311 311 311 310 310 310 310 310 311 310 311 311 312 312 312 313 314 313 312 312 310 310 305 306
318 318 319 319 319 319 319 319 319 318 318 318 319 321 320 319 319 317 317 316 316 315 314 314 313 312 312 312 312 312 311 311 312 311 311 311 311 311 311 310 310 311 310 310 310 309 309 309 309 308 309 309 309 310 310 310 310 309 310 309 309 310 310 310 310 310 310 310 310 309 310 309 311 311 311 312 312 311 310 310 310 310 310 307 307
317 317 317 317 318 318 318 317 317 318 319 319 318 319 319 319 318 318 316 315 315 315 314 313 313 312 312 312 311 311 311 311 311 311 311 310 310 310 310 310 311 310 310 309 309 308 308 307 308 307 308 308 308 309 309 309 309 308 309 308 309 309 308 309 310 310 310 310 309 308 309 309 310 310 310 310 311 310 310 310 310 309 309 308 306
316 317 317 317 317 316 316 317 317 317 316 317 318 318 317 317 317 316 316 315 314 313 313 312 312 312 311 311 311 311 311 310 310 311 310 310 309 310 309 310 309 310 309 308 307 307 307 307 307 306 306 307 307 307 308 308 308 308 308 308 308 308 307 307 308 309 309 309 308 307 308 307 308 308 308 309 309 309 309 308 309 309 308 308 306
315 316 316 316 315 315 316 317 317 317 317 317 317 317 316 316 316 315 314 313 312 312 312 311 312 311 311 310 310 311 311 310 310 310 310 310 310 310 309 310 309 308 308 307 307 307 306 306 305 305 305 306 306 306 307 308 307 307 307 307 307 307 306 307 308 307 308 308 306 306 305 306 307 306 306 307 307 307 307 307 307 307 306 308 306
315 315 315 314 315 315 315 316 317 316 316 316 315 315 316 316 315 313 313 312 311 311 311 311 311 310 310 310 310 310 310 310 310 310 309 309 309 309 309 309 308 308 307 306 306 307 306 305 305 305 305 305 305 305 306 307 306 306 306 307 306 306 306 306 306 305 306 306 306 305 304 304 305 304 304 304 304 304 304 304 304 305 304 304 306
315 316 316 315 315 314 314 315 315 315 314 315 315 314 314 315 314 313 312 311 311 311 311 311 310 309 309 309 310 309 309 310 310 309 309 308 308 308 308 308 307 307 307 307 306 306 306 305 305 305 305 304 304 304 306 305 305 305 305 306 306 306 305 305 305 304 304 305 304 304 303 303 304 303 303 303 303 302 302 302 302 303 302 303 303
315 315 315 314 313 313 313 314 313 313 313 314 314 313 313 313 312 311 310 310 311 310 310 310 309 309 309 309 309 309 309 308 308 308 308 308 307 307 307 307 306 307 306 307 306 305 305 305 305 305 304 303 303 303 304 305 304 304 304 304 305 305 305 305 304 304 304 304 303 303 302 302 302 301 301 301 301 300 300 300 301 301 301 301 302
311 311 311 311 311 311 312 313 312 312 312 313 312 312 312 312 311 310 310 310 310 310 309 309 308 308 309 308 308 308 308 308 308 308 308 308 307 307 307 306 306 306 306 306 305 305 305 304 305 303 303 303 302 303 302 303 304 305 305 305 305 304 305 304 304 304 303 303 303 302 301 301 301 300 300 299 300 299 299 299 299 299 299 300 301
309 310 310 311 311 312 312 312 312 312 312 311 311 311 311 310 311 311 310 310 309 309 309 308 308 308 307 308 307 308 307 307 307 307 307 307 307 307 307 307 306 305 306 305 305 305 304 304 303 303 303 302 302 302 302 302 303 304 305 305 305 304 304 304 304 304 303 304 303 302 301 301 300 299 299 299 298 298 298 298 298 298 299 299 299
308 309 310 311 311 311 312 312 313 312 312 311 311 310 310 309 310 310 309 309 309 309 308 308 308 308 307 307 307 307 306 307 307 307 307 306 306 307 306 305 306 305 305 305 305 304 305 304 304 303 302 302 301 301 301 301 302 303 304 304 304 304 304 304 304 303 303 303 302 301 301 300 300 299 298 297 297 297 297 298 298 298 299 298 298
308 309 309 309 310 311 311 312 312 311 311 310 310 310 309 309 308 309 309 309 309 308 307 307 307 307 306 306 306 307 306 306 306 306 306 306 305 306 306 306 305 305 304 304 304 304 305 305 304 303 302 302 300 299 299 299 300 302 304 304 304 304 303 303 304 303 303 303 302 301 301 300 299 299 298 298 298 297 297 297 298 299 298 297 297
306 308 308 309 310 311 312 312 311 311 310 309 309 309 309 309 308 308 308 308 308 308 307 306 306 305 305 305 306 306 305 305 304 304 304 305 305 305 305 305 305 305 305 304 305 305 304 304 303 303 301 301 300 299 298 298 299 301 304 303 303 302 302 302 302 302 302 302 301 302 301 301 300 299 299 298 297 297 297 296 297 297 297 296 296
307 307 309 310 310 311 312 312 311 310 310 309 309 308 308 307 307 307 307 308 308 307 306 306 305 304 304 304 303 304 303 304 303 303 303 304 304 304 304 304 304 304 304 304 304 305 304 303 302 302 301 300 299 299 296 293 294 297 302 303 303 303 302 302 301 300 301 301 301 301 301 300 300 299 298 296 295 295 296 297 296 296 296 295 295
307 308 309 310 311 311 312 311 310 310 310 309 309 308 308 307 307 306 306 307 308 307 306 305 304 303 303 303 303 302 302 302 303 303 303 303 303 303 303 303 303 304 304 304 304 303 303 303 302 302 301 300 298 297 292 291 292 292 298 303 302 302 302 301 301 300 299 300 300 300 301 301 300 299 299 296 295 295 294 294 294 295 296 296 295
307 309 309 310 311 311 311 310 310 310 310 309 308 308 307 306 306 306 306 307 307 306 305 305 303 302 302 301 301 302 301 302 302 302 302 302 303 303 303 303 303 304 304 305 304 303 302 302 302 301 300 299 298 294 291 291 292 291 293 300 302 302 301 301 300 299 299 299 299 299 300 300 299 299 299 299 297 295 294 294 294 294 294 294 294
307 308 309 310 310 311 311 311 311 310 309 310 309 308 306 306 306 306 307 306 306 306 305 303 302 301 301 302 301 301 301 301 302 302 303 302 302 302 302 303 303 304 304 303 303 302 302 302 302 300 299 298 298 293 291 291 292 291 291 295 302 301 301 300 300 300 300 299 299 299 299 299 299 299 299 298 298 298 296 295 296 296 296 295 293
308 309 308 310 311 311 311 311 311 311 311 310 310 308 307 307 307 306 306 305 305 304 304 302 301 300 300 301 301 301 301 301 302 302 302 302 302 302 303 303 303 304 303 302 302 302 302 302 302 301 299 298 297 293 291 291 291 290 291 293 303 301 301 300 300 300 300 299 299 299 298 298 298 299 299 296 296 296 297 297 298 298 298 298 295
308 308 309 310 310 310 311 310 310 310 310 309 308 307 306 306 305 304 305 305 304 303 302 301 300 300 300 300 300 300 300 301 301 302 302 302 302 302 302 303 303 303 302 302 302 301 301 302 302 301 300 298 297 291 291 290 291 291 290 295 303 302 301 301 301 301 300 300 299 299 299 298 298 298 297 294 294 294 296 297 297 296 297 298 298
308 308 309 309 310 310 310 309 310 309 308 308 306 306 305 304 304 304 304 304 303 301 300 300 300 300 300 300 300 300 301 300 301 301 301 301 302 302 302 303 302 302 302 302 302 302 301 300 301 301 300 299 297 291 291 291 290 290 291 301 301 301 300 300 300 300 300 300 300 299 298 298 297 297 295 290 291 293 296 296 296 296 296 297 298
310 310 310 311 312 311 311 310 309 308 307 306 305 305 304 303 303 303 303 302 301 300 300 300 299 299 300 300 300 300 300 300 300 300 300 301 301 301 302 302 302 302 301 301 301 301 301 300 300 301 301 300 298 294 290 291 290 290 294 301 300 300 300 299 299 300 300 300 300 299 297 296 296 296 293 289 290 291 296 295 295 295 295 296 296
311 311 311 311 311 311 310 309 308 308 307 306 305 304 303 302 302 302 301 300 300 299 299 299 299 300 300 300 300 300 300 300 300 300 300 300 301 302 302 302 301 301 300 301 301 300 301 300 299 299 300 300 299 295 291 291 290 290 293 300 299 299 299 299 299 299 300 300 299 299 297 296 295 295 291 289 289 293 296 295 294 293 293 293 294
310 309 308 309 309 309 309 309 307 305 305 305 305 303 301 301 300 300 300 299 299 299 299 299 299 300 300 300 300 300 300 300 300 300 301 300 301 301 302 302 301 301 301 301 301 300 300 301 301 300 297 299 300 297 292 291 290 290 294 300 298 298 298 298 298 297 299 299 299 298 297 294 294 293 289 289 289 292 295 296 295 294 292 292 293
309 309 310 309 309 308 307 307 305 305 305 304 303 301 300 299 299 299 299 298 299 299 300 300 300 301 301 301 301 301 300 300 300 300 301 300 301 302 302 301 301 301 300 300 300 300 300 300 301 301 300 299 299 299 296 290 291 291 290 297 299 296 296 298 298 297 297 298 298 298 297 292 290 289 289 289 289 289 294 297 296 294 292 290 293
308 307 306 308 308 307 306 306 305 305 304 303 301 300 299 299 299 299 298 299 300 300 300 300 301 301 300 300 301 301 301 300 300 300 301 301 301 301 301 301 300 300 300 300 300 300 300 300 300 301 301 300 299 299 297 291 291 291 290 292 298 296 296 297 297 296 297 297 296 296 297 293 290 289 289 289 289 290 290 296 295 294 293 292 292
307 306 307 308 307 307 307 306 305 304 303 302 300 299 299 299 299 299 300 301 301 300 301 301 301 300 300 300 301 301 302 301 301 301 300 300 301 301 301 300 300 300 300 300 300 300 299 300 300 300 301 301 299 297 298 293 291 291 291 290 296 297 296 297 297 296 296 296 296 295 296 293 290 290 289 290 289 290 290 295 294 289 289 289 294
306 306 307 307 306 306 305 304 303 303 302 301 300 299 299 299 299 300 301 301 301 301 301 301 301 300 301 301 301 302 302 302 302 301 300 300 300 300 301 301 301 300 300 300 300 300 299 298 299 299 300 301 301 300 293 297 292 291 290 291 290 293 291 297 297 296 296 296 296 296 296 293 290 289 290 289 290 289 292 294 289 289 289 289 293
307 307 307 307 306 305 304 304 303 302 301 301 300 299 299 299 299 301 301 302 302 301 301 301 301 301 300 300 300 301 302 302 302 301 301 300 300 300 300 301 301 299 298 298 298 299 298 297 297 297 299 299 300 300 295 292 295 292 291 290 290 290 290 296 298 297 297 297 296 297 295 290 289 289 290 290 290 291 293 289 289 289 289 292 295
306 306 306 306 305 304 303 302 302 302 302 301 301 300 299 299 300 301 301 301 301 301 301 300 300 300 301 300 301 301 301 301 302 301 300 300 301 301 299 300 300 299 298 298 297 298 297 297 297 297 298 298 300 299 299 296 292 292 291 290 290 289 290 290 297 298 297 298 293 291 290 290 290 290 290 291 292 292 290 289 289 290 293 295 294
306 305 305 305 305 304 303 302 302 302 301 302 301 301 299 300 301 301 301 301 301 301 300 300 300 300 300 300 300 300 301 301 302 302 301 301 301 300 299 299 299 298 298 298 297 297 296 297 297 297 297 298 299 298 298 298 296 294 294 292 291 291 292 291 293 295 291 290 290 290 291 291 292 293 295 296 296 296 291 290 291 293 296 294 294
305 305 304 305 304 303 302 301 301 301 301 301 301 301 301 301 300 301 301 301 301 301 300 300 300 300 301 300 300 300 300 301 302 301 301 301 300 300 300 299 300 299 298 298 298 297 297 296 296 297 297 297 298 297 296 296 297 296 296 297 297 297 293 293 297 297 295 298 297 295 294 291 292 291 291 291 292 293 295 296 296 295 296 295 295
306 305 305 305 304 303 302 301 300 301 302 301 301 300 301 301 301 301 302 301 300 300 300 300 300 300 300 300 300 293 297 300 300 301 300 300 301 302 300 299 299 299 299 298 298 297 296 297 297 296 297 297 296 296 295 294 295 294 295 296 296 296 296 296 295 295 296 297 298 294 294 297 297 296 295 296 296 296 295 294 295 295 295 295 293
304 304 304 304 303 302 302 301 301 302 302 301 301 301 302 302 301 301 301 300 300 299 301 301 301 300 300 300 301 299 300 300 300 301 301 301 301 301 301 300 301 301 300 300 300 298 297 299 298 297 296 297 296 295 295 291 294 289 291 294 294 294 294 294 293 290 294 297 297 296 296 295 294 292 292 294 294 294 293 294 296 295 295 295 294
305 304 304 303 303 303 302 301 301 301 301 301 301 301 301 300 300 300 301 300 300 300 301 300 300 300 300 300 301 299 301 300 300 300 300 300 292 291 297 302 300 292 287 288 290 298 298 298 299 299 298 295 295 296 290 287 288 288 288 288 288 288 288 291 290 288 292 294 294 294 294 293 292 293 292 291 292 292 292 293 293 291 293 294 293
304 303 303 302 302 301 300 299 299 300 300 300 300 300 300 300 301 301 301 301 301 299 300 300 300 300 299 300 301 301 301 301 301 300 301 300 300 298 289 287 290 293 292 289 287 288 287 287 294 297 297 290 291 290 288 289 288 289 288 288 288 288 288 289 288 291 293 293 292 292 292 293 292 292 291 291 291 291 291 291 292 292 293 291 291
Wind_Speed
10 12 14 12 11 9 7 4 4 5 9 8 9 8 9 8 8 8 6 6 5 5 5 5 6 6 5 6 6 6 6 5 5 5 5 6 6 6 5 5 5 5 5 5 5 5 4 4 4 4 4 3 3 4 4 5 4 4 5 5 5 6 5 4 4 6 7 7 6 6 7 8 8 8 8 7 7 6 6 6 6 6 7 8 7
8 9 9 9 8 8 8 3 2 9 7 8 9 9 8 8 8 8 7 7 7 6 6 5 5 5 4 5 5 5 5 5 6 6 6 6 7 7 7 6 7 7 6 6 6 6 5 4 4 4 4 4 4 4 4 4 4 4 4 5 4 5 5 5 4 6 5 6 8 8 7 6 7 7 6 6 6 5 6 7 7 7 8 7 7
11 8 7 7 7 3 4 5 5 5 8 8 9 10 9 9 8 8 7 7 7 6 6 7 7 7 7 6 6 7 7 6 7 7 7 7 7 7 7 7 7 7 8 7 6 6 6 6 5 4 4 4 4 4 4 5 5 5 5 5 6 5 6 5 4 3 7 7 9 9 7 8 4 4 3 5 6 6 7 8 7 8 8 8 7
11 11 9 7 6 2 3 6 6 7 8 9 8 9 7 8 8 8 8 7 7 8 8 9 10 9 8 8 7 6 7 7 7 6 7 7 7 7 7 7 7 7 8 8 7 8 8 8 7 7 6 6 5 5 5 5 5 5 5 6 6 7 6 5 3 3 5 7 7 6 9 8 9 1 5 6 7 8 7 7 6 7 8 8 7
14 11 10 11 8 3 4 6 6 8 8 9 8 8 7 9 8 9 8 8 7 7 9 9 9 9 8 9 8 8 6 5 5 5 5 6 6 7 8 8 8 8 8 8 8 8 8 8 8 8 9 10 9 7 7 7 7 6 6 6 7 7 8 6 5 4 5 5 6 8 6 6 6 9 10 9 3 4 6 8 7 8 8 8 7
16 13 10 11 11 8 7 6 6 7 8 8 9 10 10 8 9 9 8 8 7 7 6 5 6 6 6 6 6 5 5 4 5 5 5 5 6 6 8 8 8 8 8 9 9 8 8 9 8 8 8 8 8 8 8 9 10 11 10 8 8 8 8 8 8 4 4 4 5 5 6 6 9 10 11 8 6 7 6 7 8 8 7 8 7
13 13 11 11 10 11 9 7 6 8 8 8 8 9 10 9 9 9 8 8 7 7 6 5 5 5 5 4 4 4 4 5 5 5 5 5 5 6 6 7 8 8 9 9 9 9 8 8 8 7 6 6 6 6 7 8 8 9 10 10 10 9 8 8 9 7 6 4 4 5 7 8 8 8 7 10 11 7 7 7 7 8 8 8 8
14 14 12 10 10 10 10 9 7 5 6 6 7 8 10 9 9 9 7 8 7 6 5 4 6 6 6 5 5 5 5 5 5 5 5 4 5 5 4 5 7 7 8 8 8 8 8 8 8 8 8 8 7 6 6 6 6 5 7 9 9 8 10 9 10 8 8 8 6 7 7 8 7 9 9 9 10 12 11 8 8 6 6 7 9
13 13 13 13 13 13 12 10 7 5 6 6 7 8 8 9 9 9 9 8 8 8 7 7 6 4 4 5 5 5 4 4 3 3 3 3 4 3 4 4 5 7 8 8 7 8 8 7 7 7 7 7 6 6 6 7 8 8 8 8 8 9 8 8 9 9 10 9 11 10 9 9 8 7 8 8 8 10 12 11 10 9 9 8 8
12 13 12 12 12 11 9 10 8 6 6 8 8 8 8 8 9 10 10 8 7 8 8 8 7 6 5 5 5 5 3 3 2 2 2 2 4 4 4 5 5 6 7 9 8 8 8 8 7 8 7 7 6 6 7 7 8 7 8 8 9 10 7 8 8 7 8 9 9 10 10 10 10 8 7 9 10 10 11 13 12 13 12 9 8
12 12 13 13 13 13 11 10 8 8 7 8 8 8 8 8 9 11 10 8 8 8 8 8 8 8 7 6 6 5 4 3 3 3 3 3 4 4 5 5 6 6 7 7 9 9 8 9 8 8 7 7 7 8 8 8 8 8 8 9 9 10 8 9 9 8 8 7 9 8 9 9 11 12 11 11 11 10 12 13 13 13 13 14 10
13 14 14 14 13 13 11 11 9 9 9 9 8 8 8 9 9 11 10 9 8 8 8 8 8 9 9 8 7 6 5 4 4 4 4 4 4 5 5 6 6 6 7 7 8 8 8 8 8 8 7 8 8 8 8 8 8 7 8 8 8 9 9 9 8 10 11 9 9 8 8 8 9 10 12 12 12 12 12 13 12 13 13 11 11
14 14 14 14 15 15 15 14 12 10 9 10 10 9 9 9 10 11 10 9 8 8 9 8 8 8 8 8 7 6 6 6 6 6 5 5 5 6 6 6 6 7 7 7 8 8 7 7 7 8 7 7 8 8 8 8 8 7 8 8 9 9 9 10 8 10 10 10 9 9 8 8 8 9 9 10 11 12 12 13 13 13 13 13 12
13 14 13 13 13 13 14 14 13 11 12 11 9 8 8 8 9 10 10 8 8 8 9 9 9 9 9 8 7 7 7 7 7 7 6 6 6 6 7 7 7 7 8 8 7 7 7 8 8 8 8 8 8 8 7 8 8 7 8 9 9 8 9 10 9 10 9 11 10 9 9 8 8 9 9 9 9 10 10 12 13 13 14 14 13
13 13 13 13 12 13 12 12 11 11 12 10 9 9 8 8 9 11 10 9 9 9 9 9 9 9 8 8 8 7 7 7 7 7 7 7 7 7 7 7 7 8 8 6 7 7 7 8 8 8 8 8 8 8 7 7 8 6 7 8 7 7 8 9 8 10 10 11 11 10 9 8 9 9 9 9 9 9 10 10 11 13 13 12 13
14 13 14 14 13 12 11 11 11 11 11 10 10 9 8 8 9 10 10 10 10 9 9 8 9 8 10 10 10 9 8 7 7 7 7 7 7 7 8 7 7 7 6 7 7 7 8 8 9 9 9 8 8 8 8 7 7 7 6 7 8 6 7 9 8 8 9 10 10 10 9 9 8 9 9 9 9 9 9 10 10 11 12 13 12
13 13 13 15 13 12 10 10 11 11 10 10 9 9 10 10 10 10 10 9 9 9 9 9 9 10 10 10 9 9 9 9 8 8 8 8 8 7 8 7 8 7 6 6 7 8 8 8 8 9 9 9 9 9 9 8 7 7 7 8 8 8 7 8 8 8 9 9 9 11 9 8 9 9 8 8 8 8 9 9 9 10 10 11 11
14 14 14 14 14 13 11 10 10 10 10 10 10 10 9 9 10 11 9 8 9 9 9 9 9 10 10 10 10 9 8 8 8 9 8 8 8 8 7 8 7 6 6 6 7 8 8 8 8 9 9 9 9 8 8 8 7 7 7 7 7 7 7 6 7 7 7 7 9 9 9 8 10 10 9 9 9 9 8 9 8 8 9 10 10
15 15 14 14 13 13 12 12 12 11 11 10 10 10 10 10 10 10 10 8 8 7 8 7 8 7 7 8 9 9 8 8 8 9 9 9 10 10 9 7 7 7 7 7 7 8 8 8 8 9 9 9 9 9 8 8 8 7 7 7 8 8 7 7 7 7 7 8 9 9 9 9 10 10 9 9 9 9 9 9 9 8 8 9 10
16 15 15 14 14 14 13 12 12 12 12 11 11 10 12 11 11 10 8 8 8 9 8 8 8 8 9 9 9 8 9 9 9 9 9 9 8 8 8 8 7 7 7 7 8 8 9 9 9 9 9 9 9 9 8 9 8 8 7 7 8 8 8 8 8 8 7 8 9 10 10 10 10 10 9 9 9 10 10 9 9 10 10 10 10
16 15 15 15 15 14 13 13 12 12 11 10 10 11 10 10 10 9 9 9 8 8 8 8 8 9 9 9 9 9 10 9 9 9 9 9 8 8 8 7 7 7 7 8 8 8 9 9 10 10 10 10 10 9 8 8 8 8 8 8 8 9 9 8 8 9 9 9 10 10 11 12 11 11 10 10 10 11 11 10 10 10 10 10 11
17 16 16 15 15 14 13 12 12 12 12 12 10 10 10 9 8 9 8 8 8 8 8 8 8 8 9 9 9 8 9 8 9 9 9 9 8 8 7 7 8 8 8 8 9 8 9 10 10 10 10 10 10 10 9 8 8 9 9 7 8 10 10 9 9 10 10 8 9 10 11 12 11 11 11 11 10 11 12 12 12 11 11 11 10
17 17 17 15 15 14 14 14 13 13 12 12 11 10 9 8 8 8 8 8 8 8 8 8 8 9 9 9 9 9 9 9 9 8 9 9 8 8 7 8 8 7 8 8 8 9 9 10 10 10 10 10 11 10 9 9 9 9 9 9 9 9 9 10 10 10 11 10 11 10 12 12 10 12 11 10 11 12 12 12 12 11 12 12 12
16 15 15 15 14 14 14 14 14 12 12 12 10 10 9 8 9 9 9 9 9 8 8 9 9 9 9 9 9 9 9 8 9 8 9 8 8 8 8 8 8 7 7 7 9 9 9 9 10 10 11 11 11 11 10 9 10 10 10 10 10 10 10 10 10 10 11 11 11 11 12 13 12 13 12 12 12 13 13 12 13 13 12 13 12
16 14 14 15 15 15 14 14 13 13 12 11 10 10 10 10 9 9 9 8 8 8 9 9 9 10 9 9 9 8 9 8 8 8 8 8 8 7 7 8 7 8 8 8 8 8 9 9 9 11 11 12 12 11 11 11 10 9 9 9 9 9 9 10 10 10 10 11 11 11 12 13 13 13 13 13 13 16 14 13 14 14 14 14 13
15 15 17 17 16 15 14 13 12 13 13 11 10 10 10 11 10 9 9 9 9 9 9 9 9 9 9 9 9 8 8 8 8 8 8 7 7 7 7 7 7 8 8 8 8 8 8 10 10 11 11 12 12 12 12 12 11 10 9 8 8 9 9 9 10 10 10 10 11 12 13 13 13 14 13 14 14 16 15 15 16 15 15 15 16
15 17 16 15 15 16 15 14 13 13 12 11 11 11 11 11 10 10 9 9 9 9 9 9 9 9 8 8 8 7 7 7 7 6 6 7 7 7 7 7 7 7 7 7 8 8 8 9 10 10 12 12 13 13 13 12 11 10 9 9 8 9 9 9 9 10 11 11 11 12 12 13 14 13 15 15 16 17 15 17 17 17 16 16 16
13 15 17 17 16 16 15 14 14 13 12 11 10 10 11 11 10 10 9 9 8 9 9 9 8 8 8 8 7 7 6 6 6 6 6 6 6 7 7 7 7 7 8 8 8 8 8 8 9 10 11 12 13 13 13 12 10 9 8 8 9 9 9 9 10 10 11 11 11 12 12 13 13 13 15 15 16 16 16 17 16 16 16 17 16
15 17 16 17 17 16 15 14 14 14 13 12 11 11 11 10 10 10 9 9 9 9 9 9 8 8 8 7 7 6 6 6 6 6 7 7 7 7 6 6 6 7 6 7 7 8 8 9 10 10 11 11 11 11 11 11 11 10 8 8 9 10 10 10 11 11 11 12 12 12 11 13 13 12 12 12 12 13 15 17 18 17 18 17 16
19 17 17 17 16 16 15 15 14 15 14 13 12 11 11 11 10 10 10 9 9 9 9 9 8 8 8 7 7 6 6 6 6 7 7 6 6 6 6 7 7 7 7 7 8 8 8 9 9 10 10 10 11 9 13 17 14 11 10 8 8 9 9 10 10 11 10 11 12 13 12 15 11 13 14 12 12 14 17 16 17 17 18 18 17
16 17 19 18 16 16 15 15 15 15 14 12 12 11 11 11 10 10 10 9 9 9 9 8 8 8 8 7 7 7 7 7 7 6 6 7 7 6 7 7 7 7 7 7 8 8 8 8 9 9 10 10 10 10 15 16 16 18 12 9 9 9 9 9 10 10 10 12 12 14 13 15 15 17 16 16 16 17 17 17 18 18 18 16 16
18 19 18 17 16 16 16 16 16 15 14 13 12 12 11 11 10 10 9 9 9 9 9 9 8 8 8 8 7 7 7 7 7 7 7 7 7 7 7 7 7 8 7 7 8 8 8 8 8 10 10 10 10 14 15 17 16 18 14 11 8 8 9 9 10 11 11 12 13 13 13 12 13 16 17 18 20 20 18 18 19 18 16 16 12
18 18 18 17 17 16 17 16 15 15 14 14 13 12 11 11 10 10 9 9 10 9 9 9 8 8 8 7 7 8 8 7 7 7 7 7 8 8 8 8 8 7 7 8 8 8 8 8 8 9 10 11 11 15 15 17 16 17 16 14 7 9 9 10 11 12 12 12 13 12 13 12 13 19 16 18 19 20 20 19 18 17 17 18 17
18 18 18 17 15 14 15 16 15 15 14 13 13 12 11 11 10 10 10 10 10 10 9 9 9 9 8 8 8 8 8 8 7 7 7 8 8 8 7 6 7 7 7 8 8 9 8 8 7 8 9 11 13 13 15 17 17 18 17 15 8 9 10 11 11 11 11 13 13 13 13 14 14 15 15 17 18 18 18 18 17 17 17 19 18
18 18 17 17 17 17 16 16 16 15 14 13 12 12 12 11 11 11 11 11 11 10 10 9 9 9 8 8 8 8 8 8 8 8 8 8 7 7 6 6 6 6 7 7 7 8 8 8 8 7 8 9 10 13 15 16 17 18 19 14 8 8 9 10 11 11 12 12 14 13 14 14 15 15 14 18 18 18 17 16 17 18 18 17 18
18 20 19 18 18 18 17 18 16 15 13 13 13 12 12 11 11 11 11 11 11 11 11 10 10 9 9 8 9 8 8 8 8 8 8 8 7 7 7 6 6 6 7 7 7 7 8 9 8 7 7 9 10 13 15 16 18 19 21 7 9 8 9 10 10 11 11 11 12 14 14 14 14 14 17 20 18 17 16 17 18 19 18 18 16
20 20 19 18 18 18 18 17 15 14 14 13 13 13 12 12 12 11 12 12 12 11 11 11 10 10 9 9 8 9 9 8 8 8 8 7 7 6 6 6 6 6 6 7 7 7 7 8 9 8 7 7 10 13 14 15 17 19 15 9 9 8 8 9 9 11 11 11 12 12 14 14 14 15 19 20 20 20 16 17 18 19 18 17 17
20 19 18 18 17 17 17 16 17 16 14 13 14 13 13 13 13 12 12 12 12 12 12 11 11 10 9 9 9 9 9 8 8 8 7 7 6 6 6 5 6 6 6 6 6 6 7 7 8 9 8 7 9 12 13 14 15 17 17 10 9 9 9 10 9 10 10 10 11 10 13 16 15 16 19 20 20 18 16 17 18 19 20 20 20
21 21 19 18 17 18 18 17 17 17 15 15 15 15 14 13 13 13 13 13 12 12 12 12 11 10 9 9 8 8 9 8 8 8 6 7 6 6 5 5 5 6 6 6 5 6 6 6 6 7 9 8 8 10 13 12 14 15 14 10 10 9 9 10 9 10 9 10 11 9 13 14 16 17 20 20 20 17 15 16 18 18 19 20 20
21 21 21 21 19 19 19 18 18 17 17 16 16 14 14 14 14 13 13 13 13 12 12 11 11 10 9 8 8 9 8 8 8 7 6 6 5 5 5 5 5 5 5 5 5 5 6 6 5 6 7 9 8 9 11 11 12 12 14 12 9 10 10 10 10 9 10 10 10 10 10 16 18 19 19 19 18 18 14 15 17 17 18 20 20
21 19 19 17 18 19 19 19 17 17 17 16 15 15 15 14 14 14 14 13 13 12 12 12 10 10 10 9 8 8 8 8 7 7 6 6 5 5 5 5 5 5 5 4 4 4 5 5 5 5 6 7 7 8 9 9 11 11 11 12 9 10 10 10 11 9 9 9 10 10 10 14 18 19 19 19 18 16 15 14 14 14 14 16 17
22 23 21 19 19 19 19 18 17 18 17 16 16 16 15 15 14 14 14 13 13 13 12 11 11 11 10 10 9 8 7 7 7 6 6 6 5 5 4 4 5 5 5 5 4 4 4 4 4 4 5 5 6 7 9 8 9 11 11 9 9 9 11 11 10 8 9 9 10 10 10 14 18 19 19 19 18 15 15 14 14 14 16 20 15
22 22 21 20 19 20 20 19 18 18 17 16 17 17 16 15 15 16 14 14 13 12 12 11 11 11 10 10 9 9 7 5 6 6 6 6 6 5 5 4 4 5 5 5 5 5 5 5 4 4 4 5 4 5 6 8 8 9 9 10 9 8 12 10 10 9 9 9 9 10 11 16 18 19 19 19 17 14 14 13 16 16 14 16 15
22 22 22 21 20 19 19 19 18 17 16 16 17 17 16 15 17 15 14 14 13 12 12 11 11 10 10 10 9 8 7 7 7 6 6 6 5 4 3 3 2 3 4 5 5 4 5 5 5 4 4 5 5 5 7 5 7 7 8 8 9 10 10 9 10 8 8 8 9 11 13 18 18 18 18 18 14 10 12 14 15 18 15 13 13
23 22 22 20 20 21 19 19 17 19 17 17 16 17 18 17 16 15 15 14 13 12 11 11 11 10 10 9 9 8 7 7 6 5 6 5 4 3 4 3 3 4 4 4 4 5 5 5 5 5 4 5 5 6 6 6 4 7 8 6 8 7 10 11 9 8 9 9 10 13 15 15 16 14 16 14 12 13 15 14 14 16 15 15 14
22 22 22 21 21 21 21 21 19 19 17 16 16 17 18 17 16 15 15 14 13 12 12 12 11 10 10 9 9 8 7 7 5 4 4 3 3 3 3 3 3 4 4 4 4 4 5 4 5 4 4 5 5 6 7 8 9 10 10 7 6 5 9 12 10 8 11 13 10 11 12 14 14 14 14 13 12 13 14 15 14 17 16 14 14
24 23 23 21 21 20 22 21 21 19 17 16 17 16 16 15 15 15 14 14 13 12 12 11 11 10 9 9 8 7 7 6 5 4 4 3 3 3 3 3 3 3 3 4 4 4 4 4 4 5 4 4 5 6 7 8 9 10 10 9 9 9 11 11 9 10 11 10 10 11 10 11 10 12 12 12 12 13 13 14 14 14 14 15 14
23 24 23 21 21 22 22 22 20 18 17 17 17 17 16 16 16 15 14 14 13 12 11 11 11 10 8 8 7 6 5 6 5 4 4 3 2 2 2 3 4 3 2 3 3 4 4 4 4 5 4 4 5 6 8 9 9 9 9 9 9 9 10 10 10 11 11 11 10 10 10 10 11 11 12 11 12 13 13 13 14 14 14 15 16
23 24 23 21 21 22 23 21 19 17 17 17 18 17 17 18 16 15 14 14 12 12 11 11 10 9 8 7 7 8 6 5 5 4 3 3 3 3 3 4 3 3 4 4 3 3 3 3 3 4 5 5 5 6 7 6 7 8 6 8 9 9 10 10 11 13 12 10 9 9 10 10 11 11 13 12 13 13 14 14 15 16 15 15 15
22 21 21 20 20 22 22 20 18 17 17 17 17 16 16 16 14 14 14 13 13 11 11 11 9 8 8 7 7 7 6 5 5 5 4 4 6 6 6 3 5 6 4 4 5 4 5 4 4 2 4 5 5 5 6 7 9 10 9 9 9 11 11 10 13 17 14 7 8 8 9 10 10 11 11 11 12 12 12 14 15 16 15 15 15
21 21 20 20 20 19 18 18 17 16 16 16 15 14 15 15 15 14 14 13 13 11 9 9 9 8 8 8 7 7 6 5 5 5 5 5 6 6 5 4 5 5 5 5 3 5 3 3 4 5 3 9 2 3 5 6 8 9 11 11 11 11 13 13 15 10 8 7 8 8 8 9 9 11 9 10 12 13 13 13 14 14 14 14 13
Wind_Direction
35 27 13 23 50 46 54 81 95 107 113 125 127 132 127 129 129 126 126 124 123 117 107 103 109 107 90 87 80 78 75 75 70 63 57 54 40 43 40 33 24 26 18 16 3 359 2 0 352 348 340 324 310 304 318 312 318 317 308 305 306 302 293 296 299 300 297 292 280 281 279 267 267 263 259 265 264 266 267 269 267 265 261 256 244
76 69 48 46 35 48 61 87 96 108 110 120 119 122 123 123 114 113 112 102 93 93 96 88 83 86 93 79 78 74 76 72 70 59 54 56 50 43 36 36 33 30 26 21 18 9 3 354 354 360 343 338 318 323 317 323 302 308 321 300 293 300 298 302 310 306 288 304 308 301 286 267 246 242 259 263 260 264 269 262 256 257 255 254 253
93 89 96 67 73 60 104 87 84 110 108 110 111 108 111 112 112 110 103 103 98 98 97 93 88 76 78 86 92 94 74 69 73 72 66 61 54 46 36 33 29 28 15 19 16 14 11 4 0 351 344 340 329 328 333 321 327 324 322 311 309 301 294 291 306 304 307 311 300 292 292 307 273 239 229 263 271 280 280 279 276 267 264 257 240
110 107 101 83 73 60 80 98 111 112 105 99 104 104 101 101 101 99 99 96 97 95 92 87 85 91 90 94 92 91 95 88 81 75 70 66 59 51 48 43 40 37 30 21 18 16 9 2 353 353 358 356 337 328 334 333 342 327 328 324 318 307 308 309 315 309 308 316 309 315 310 302 303 291 323 304 290 285 280 281 279 275 276 273 272
120 115 110 120 122 104 78 80 86 89 91 92 90 87 85 84 86 89 88 87 91 98 101 104 105 101 105 103 101 101 104 108 104 81 69 67 62 50 43 37 33 32 27 24 24 22 19 11 6 4 360 359 354 353 348 344 338 332 330 316 318 317 309 307 307 315 298 306 304 314 319 291 314 322 325 305 299 284 278 282 276 275 279 278 267
128 135 144 132 124 117 106 83 79 92 88 87 92 97 97 91 91 91 89 84 82 83 91 95 106 118 131 137 132 124 106 79 62 64 66 59 56 55 42 33 36 36 30 28 28 26 25 20 19 17 15 10 6 1 359 356 354 346 346 334 323 320 306 305 307 309 292 283 283 279 289 303 312 323 314 307 307 291 286 280 286 286 281 273 270
122 127 129 121 117 110 97 82 58 87 83 80 80 81 83 86 86 83 86 86 78 76 89 100 87 79 69 60 50 58 83 80 79 77 75 72 66 53 51 41 35 37 35 33 32 30 27 23 21 22 23 19 12 14 13 4 354 353 345 351 346 333 327 310 312 310 300 272 264 262 267 271 288 301 305 310 303 311 299 292 278 276 286 288 283
128 126 122 117 113 106 95 81 58 48 63 74 77 78 79 77 74 75 76 76 77 80 76 66 97 84 75 67 66 70 80 91 87 82 77 76 64 53 48 44 40 42 41 39 38 33 31 28 23 23 21 17 10 20 8 5 358 350 356 351 353 351 350 342 328 325 322 312 313 294 280 273 263 267 272 285 295 301 301 295 287 284 282 275 277
128 127 127 128 122 125 128 120 113 91 80 77 77 75 78 79 80 79 77 73 65 59 67 63 55 63 96 100 90 90 100 105 105 100 98 85 71 62 48 49 48 39 32 29 25 30 26 25 20 19 17 10 1 6 1 355 357 352 354 354 353 350 355 348 343 343 341 336 333 321 312 306 297 278 271 273 288 298 298 302 304 302 291 280 272
126 127 135 133 130 125 114 114 114 109 96 88 81 81 81 84 86 84 80 75 73 75 74 73 78 71 63 80 101 107 104 87 64 73 79 78 65 55 53 49 45 43 38 31 24 25 23 21 18 16 13 8 1 357 355 356 355 349 347 344 345 346 342 348 349 343 346 342 338 331 330 326 311 310 307 307 296 288 293 303 304 303 300 296 291
128 131 136 130 130 127 123 118 122 116 108 100 94 94 97 94 96 90 86 85 79 76 71 73 71 73 76 82 83 84 79 79 89 81 67 66 71 66 65 60 52 48 37 33 33 30 29 28 21 18 19 11 8 3 6 359 354 349 348 348 344 351 350 345 338 353 348 338 344 345 337 335 329 323 325 321 314 304 307 302 305 301 300 298 290
139 141 140 136 138 139 129 128 126 118 114 112 112 114 110 104 100 97 92 88 86 81 79 78 79 78 77 77 79 80 81 83 80 75 68 72 69 77 74 67 59 53 44 43 34 25 29 25 20 18 20 13 10 6 5 2 359 356 7 2 5 3 5 354 354 358 348 344 346 340 330 332 328 322 326 325 320 316 312 304 302 306 300 294 298
149 150 146 147 150 148 142 136 132 130 121 119 117 115 112 109 106 101 94 91 87 84 82 78 76 76 79 81 75 71 73 79 83 81 75 76 73 72 72 66 59 54 47 46 38 30 26 25 20 18 14 13 11 9 8 11 3 10 16 12 11 10 8 1 6 1 357 354 342 337 335 335 329 334 332 330 324 324 323 315 314 314 306 308 302
153 154 150 153 152 148 143 139 136 133 129 123 118 116 115 112 106 99 94 92 87 84 79 77 74 76 75 73 78 80 80 80 79 78 74 73 75 76 73 72 68 61 56 46 37 33 35 29 25 22 18 16 17 16 15 19 14 18 25 18 16 14 10 9 11 4 5 359 352 344 342 333 339 341 340 332 330 326 320 316 316 313 312 306 307
159 156 153 152 152 147 142 138 135 129 127 124 124 120 115 110 106 104 99 93 91 87 82 76 75 74 74 76 79 85 85 81 77 75 75 77 73 76 76 76 72 63 58 51 40 42 36 35 31 27 24 22 21 20 17 30 24 27 32 24 23 16 16 15 12 9 9 5 4 357 347 350 349 350 340 338 333 330 322 320 316 312 307 301 300
164 159 154 154 153 149 143 138 132 129 129 128 125 122 118 111 107 101 98 94 91 85 78 78 79 79 79 81 79 77 78 78 76 75 74 74 74 74 76 75 72 70 63 56 49 42 39 38 37 34 29 27 26 25 25 26 25 27 29 26 22 12 13 17 13 8 13 8 6 359 356 355 354 350 341 339 337 332 327 324 323 314 315 320 320
166 162 158 155 150 147 138 132 133 132 132 129 124 121 120 115 109 102 95 92 85 79 84 84 82 81 79 79 79 78 75 74 75 77 77 76 79 79 79 80 77 68 66 58 52 47 42 38 40 37 34 31 30 29 29 26 24 30 27 26 20 11 10 18 11 9 10 7 6 1 1 354 357 350 349 342 338 341 346 341 337 333 330 320 315
163 160 157 155 152 146 141 133 126 129 129 127 124 122 115 107 104 103 96 87 86 89 89 89 89 85 84 80 77 75 75 76 79 80 79 82 86 89 90 88 76 70 67 59 52 49 46 42 42 40 37 34 31 28 27 27 26 32 25 28 18 7 10 14 14 9 6 1 4 2 0 358 358 350 351 348 344 342 336 333 329 327 324 316 313
164 162 158 157 154 152 147 144 139 136 132 128 127 119 109 101 96 94 89 90 94 95 93 89 89 88 84 81 81 80 81 85 85 84 85 86 84 85 86 83 76 68 62 58 55 49 47 45 43 41 36 35 31 29 27 29 27 30 25 26 18 11 12 10 13 8 4 1 2 359 2 0 356 351 347 347 343 344 341 334 332 328 322 317 315
166 161 160 157 153 149 147 145 142 138 137 132 123 113 104 99 100 95 93 100 100 98 96 93 89 89 87 85 80 80 79 80 84 85 88 88 87 89 85 78 73 70 66 61 56 53 47 47 45 41 41 36 34 30 28 28 28 29 24 20 17 13 14 14 9 11 8 2 2 2 7 4 360 353 349 344 344 344 341 334 330 329 324 321 317
163 162 158 154 150 148 146 143 141 140 135 127 119 111 106 110 108 99 103 105 101 99 98 95 91 89 87 84 85 84 84 83 83 84 86 82 82 79 78 77 74 69 67 63 58 52 50 46 47 44 38 36 33 31 27 24 26 25 25 17 14 14 13 16 8 12 14 8 6 4 8 6 2 354 353 347 346 345 340 333 331 327 323 322 322
162 158 155 153 151 150 148 146 144 143 137 125 117 112 112 107 107 106 111 105 107 103 100 99 95 90 88 88 86 85 83 83 84 83 81 81 78 77 78 77 73 66 62 60 57 53 50 49 45 42 39 34 31 30 24 24 21 20 22 18 13 14 14 15 11 11 14 10 6 6 8 7 2 355 354 350 348 346 340 333 333 331 325 322 322
160 158 157 155 152 152 151 151 148 142 130 119 112 112 111 111 111 106 111 108 105 105 102 102 101 99 97 93 92 89 88 85 83 80 78 78 76 74 72 73 71 69 60 55 54 53 47 45 45 41 36 33 28 25 23 20 19 16 15 17 14 13 11 13 12 13 10 8 9 8 9 6 0 356 357 352 350 346 339 333 330 328 323 319 317
162 158 153 151 150 150 152 152 148 139 126 119 117 118 118 116 113 116 117 117 114 111 109 106 104 101 97 96 93 91 89 87 84 81 79 76 76 75 72 68 66 63 64 58 52 51 50 44 42 39 37 32 26 22 20 16 17 13 13 12 12 14 12 13 12 11 9 9 8 8 9 5 1 357 355 352 351 346 339 334 331 329 324 320 317
158 150 144 148 153 156 158 156 147 132 124 123 125 121 119 113 110 112 112 112 107 107 106 103 104 105 102 99 97 93 90 87 85 84 82 81 77 74 69 70 69 64 58 56 54 49 49 48 42 38 36 31 26 20 16 13 12 10 11 11 10 11 11 13 12 11 11 9 6 10 7 5 2 357 355 353 348 345 342 336 332 328 324 321 317
150 150 156 158 159 161 160 153 141 131 129 129 127 125 117 114 114 116 119 119 115 113 111 111 110 108 106 103 100 97 94 92 91 88 83 80 78 76 76 70 65 67 63 58 56 50 45 48 45 40 36 32 27 21 18 11 6 5 9 11 12 9 10 12 11 9 11 9 7 9 7 4 2 358 353 348 345 342 340 335 331 327 324 320 317
146 157 161 160 162 162 156 148 135 130 130 130 130 125 118 117 121 122 119 118 118 116 112 110 108 107 107 104 101 98 97 94 90 89 89 85 79 78 76 73 68 65 62 61 57 58 50 48 46 42 38 33 28 23 16 8 2 1 7 10 11 10 11 14 10 9 9 10 10 8 6 4 359 357 351 346 343 341 338 332 329 327 323 320 315
152 158 162 162 162 159 152 139 132 131 130 131 132 125 123 125 125 124 122 121 121 120 115 111 110 108 108 108 104 102 97 93 92 90 86 86 87 82 77 75 71 65 62 58 57 58 58 52 48 45 41 36 31 26 17 7 0 359 3 12 11 11 10 11 10 11 9 11 7 8 4 1 357 353 349 344 342 338 333 327 327 323 323 319 315
156 165 164 164 163 158 145 143 139 135 135 135 130 126 126 128 127 126 128 128 127 124 120 115 113 111 109 108 107 101 100 99 96 93 92 88 84 81 81 81 77 72 63 61 60 59 57 56 53 50 47 39 35 27 19 4 358 356 360 14 10 14 11 11 9 9 10 7 6 5 358 358 350 348 347 337 330 329 329 327 324 323 320 318 314
169 167 165 167 162 152 147 147 147 143 143 143 137 137 136 134 133 132 132 131 131 128 124 120 115 115 116 115 112 110 103 100 97 95 92 92 91 88 86 81 75 71 68 63 64 59 56 55 54 54 53 43 34 29 359 353 354 355 353 14 12 16 12 14 10 9 6 3 3 359 356 357 347 357 344 334 331 330 326 321 320 321 320 317 314
165 165 169 168 159 150 149 153 152 150 151 146 144 141 138 136 136 137 134 136 134 131 127 125 119 118 117 116 111 107 106 99 96 96 97 96 93 91 86 81 77 72 70 68 63 62 57 52 56 56 52 47 37 15 352 359 354 350 346 352 18 15 18 17 13 11 4 2 2 358 355 354 352 351 345 347 343 334 326 320 314 307 302 302 310
166 170 169 162 154 148 149 154 155 154 153 150 148 143 143 141 141 139 138 139 135 133 131 127 123 123 121 116 111 107 102 101 100 96 97 94 95 92 87 84 83 78 74 72 67 63 61 58 58 60 53 46 38 13 356 2 355 349 342 332 16 14 18 17 11 12 7 7 2 357 356 353 353 350 345 348 343 336 330 325 314 305 300 294 284
165 165 164 158 156 154 155 156 157 157 156 151 146 147 145 143 142 140 141 139 138 135 133 129 127 122 116 114 112 108 104 101 97 97 95 95 93 92 89 87 82 79 78 72 67 63 61 58 62 61 54 45 37 15 358 2 353 348 339 327 17 16 18 17 13 12 10 6 4 359 356 355 352 347 351 352 344 338 336 327 319 325 326 328 321
166 164 160 158 156 155 157 159 159 158 157 147 149 144 140 139 139 143 145 144 139 137 134 130 126 122 120 114 111 107 103 100 100 98 98 96 92 88 89 89 91 86 79 77 70 64 60 58 56 62 60 48 36 13 4 -0 354 344 340 323 24 14 18 18 15 13 10 11 9 3 357 356 354 352 360 352 342 339 337 336 339 337 335 332 327
165 162 159 157 157 156 155 161 163 160 151 147 144 139 138 141 145 146 146 143 140 136 134 131 126 123 120 117 113 109 104 101 99 97 95 92 92 96 93 91 86 81 79 74 72 68 61 57 57 59 61 55 39 19 10 -0 356 345 339 313 29 16 18 19 18 14 14 15 13 7 1 359 356 355 2 347 340 339 334 339 340 339 337 336 333
166 162 159 159 159 157 158 166 161 154 149 147 142 142 143 144 147 146 145 143 140 137 133 131 128 126 122 117 113 110 109 107 104 101 99 96 94 93 92 91 90 86 84 83 78 72 65 59 54 53 57 56 47 30 11 6 356 353 332 353 15 21 12 19 16 11 14 13 15 8 2 2 353 356 355 342 335 332 335 342 342 341 339 338 337
167 162 158 157 153 152 152 155 151 151 149 147 143 146 146 146 148 146 145 142 141 136 134 132 130 126 123 120 117 113 110 109 106 103 99 98 99 97 94 94 93 92 92 86 80 73 67 61 54 47 48 53 46 33 18 7 359 353 342 6 12 11 12 15 11 8 13 11 12 9 6 2 356 356 347 336 335 332 343 346 346 343 342 342 340
160 153 150 148 149 148 147 149 150 151 148 144 146 147 148 148 147 147 145 143 141 137 136 135 131 127 124 122 120 117 114 110 107 102 101 102 100 96 92 90 92 95 91 87 87 83 77 67 61 51 31 46 48 41 23 11 2 355 342 348 19 4 11 8 12 4 10 7 21 73 23 5 357 352 338 333 335 336 347 349 351 346 344 344 341
153 147 145 146 148 149 149 150 150 149 148 148 148 149 150 148 148 148 146 143 141 138 139 135 132 129 126 122 118 115 112 110 106 104 104 104 99 95 99 101 99 96 91 89 84 84 81 75 68 65 44 37 45 46 28 12 5 358 352 351 16 6 6 7 11 359 360 8 5 17 45 10 352 339 334 333 332 337 346 353 355 351 347 343 340
151 149 149 151 150 149 152 153 154 151 149 150 151 153 150 149 149 148 146 144 141 140 136 133 132 130 126 120 116 113 111 110 109 107 103 99 101 99 94 92 90 85 85 87 89 83 77 72 66 64 61 44 36 42 33 8 9 0 357 342 13 12 4 360 12 357 356 6 359 357 11 13 344 337 331 328 327 330 337 351 359 357 349 339 332
146 143 143 148 152 156 158 157 152 150 152 153 155 151 151 150 149 149 146 143 140 138 137 137 135 132 129 125 119 115 113 110 109 109 107 104 101 100 97 93 88 80 84 87 88 90 85 79 68 58 62 64 46 28 45 23 5 1 359 350 10 13 359 344 11 355 358 1 357 358 356 0 339 329 325 321 320 322 325 346 354 350 342 322 316
144 145 154 156 158 158 155 152 151 153 154 156 154 152 152 150 151 148 144 141 142 140 140 140 140 135 128 124 119 116 114 111 112 113 114 107 104 103 103 101 92 96 96 90 82 77 73 71 77 70 57 52 97 71 22 44 10 352 349 353 358 5 348 322 2 359 358 2 1 356 1 345 328 322 317 317 314 316 322 351 342 323 322 334 334
146 152 156 156 157 157 156 154 154 156 157 156 155 153 151 153 151 146 145 145 143 144 144 142 137 134 131 127 125 124 122 121 119 119 115 112 111 105 107 108 116 112 101 96 85 75 71 67 63 59 55 51 40 108 75 23 14 337 334 331 334 333 329 323 355 2 354 358 0 354 349 331 318 314 313 311 309 310 334 343 325 323 320 326 334
150 154 155 158 154 155 153 153 155 157 157 156 156 153 153 154 149 148 147 146 148 147 144 140 138 137 135 133 134 131 126 128 128 124 117 114 110 113 115 107 117 105 93 82 76 72 68 62 54 53 50 40 35 24 120 84 354 319 296 298 312 320 318 337 328 360 345 348 346 343 325 309 305 305 306 306 302 327 331 319 322 325 309 327 344
154 157 155 158 156 154 154 155 157 158 157 157 158 155 155 154 150 151 150 151 150 147 145 144 145 143 142 141 139 137 139 133 135 130 123 120 126 137 114 119 108 88 78 76 72 67 58 56 52 45 41 36 27 33 13 41 347 318 306 267 288 292 308 306 313 346 341 331 312 297 297 301 303 310 314 319 337 346 331 320 326 324 337 358 354
154 154 158 161 157 155 155 155 158 159 158 158 158 156 157 153 152 153 154 152 151 150 150 152 148 147 148 145 144 143 143 140 143 139 135 123 126 124 107 102 94 84 78 71 63 61 55 48 46 37 33 32 32 26 15 10 2 358 353 352 316 313 326 308 285 331 321 294 288 300 308 322 330 336 336 348 347 346 331 328 342 345 360 354 355
159 158 160 160 157 157 157 157 158 160 159 159 157 158 157 152 154 156 156 154 154 154 155 153 149 150 151 147 149 152 144 147 155 155 146 145 141 120 118 109 94 87 77 68 67 54 50 45 41 30 25 28 31 28 19 9 6 359 355 350 354 353 342 329 344 346 335 336 334 332 326 307 317 321 327 328 341 343 347 349 352 352 352 354 352
158 159 164 160 160 159 158 159 160 161 160 159 160 161 158 156 159 159 157 156 157 160 160 157 155 152 155 155 154 121 160 152 167 164 161 152 147 137 105 70 56 46 58 78 63 53 42 35 25 26 18 22 26 31 24 8 1 356 350 348 355 353 351 348 345 344 334 323 329 331 331 347 347 352 353 359 353 358 353 350 352 352 350 352 348
158 161 165 162 162 160 159 158 157 158 158 161 164 166 162 161 162 159 159 160 162 164 165 158 159 157 158 161 156 165 186 161 161 181 169 165 155 161 121 98 64 28 24 8 34 70 47 24 9 28 15 17 17 28 22 6 327 319 312 337 352 355 351 341 340 324 315 317 335 341 347 348 352 355 357 358 355 358 356 355 355 357 353 352 351
156 159 162 159 158 155 154 154 156 160 162 165 169 168 162 161 162 162 164 165 164 168 170 164 168 165 161 171 171 170 184 178 171 176 167 136 50 11 345 355 113 104 62 22 336 7 14 351 342 37 46 8 14 11 4 331 315 313 312 306 309 307 311 310 311 312 301 322 342 349 347 352 352 358 357 358 354 356 353 353 358 355 353 354 352
152 154 156 153 149 146 145 147 155 162 165 168 169 162 160 166 169 169 169 168 169 172 174 171 174 176 170 175 180 178 181 189 184 186 181 172 170 172 210 246 325 116 154 184 232 273 310 306 313 320 101 156 215 308 284 300 313 309 314 311 310 309 305 305 304 313 313 346 344 349 350 353 355 355 358 356 350 358 356 355 357 354 357 354 352